• Join FlightAware (Why Join?)
  • Login
  • US Flag 
07:21PM EST


 

Airport Tracker/Info


-or-


 

Live Flight TrackerFlight Track Log ✈ FFT918 ✈ 25-Feb-2014 ✈ KMCO - KTTN

Flight Track Log - Related Links

Times and Time Zones

All times are in EST time to prevent confusion due to time zone crossing. See the FFT918 flight status page for this flight to view local times or setup timezone preferences in your user account.

Time Position Orientation Groundspeed Altitude Reporting Facility
EST Latitude Longitude Course Direction KTS MPH feet Rate Location/Type
10:00PM 28.4000 -81.3000 150° Southeast 167 192 900  Level Orlando TRACON
10:01PM 28.3500 -81.2667 150° Southeast 220 253 2,700 2,000 Climbing Orlando TRACON
10:02PM 28.3333 -81.2000 106° East 268 308 5,100 2,895 Climbing Orlando TRACON
10:03PM 28.3500 -81.1167 77° East 299 344 8,200 2,335 Climbing Orlando TRACON
10:05PM 28.5072 -81.1372 353° North 304 350 12,300 2,108 Climbing Jacksonville Center
10:06PM 28.6058 -81.1783 340° North 326 375 14,700 2,400 Climbing Jacksonville Center
10:07PM 28.7047 -81.2239 338° Northwest 358 412 17,100 2,400 Climbing Jacksonville Center
10:08PM 28.8094 -81.2647 341° North 378 435 19,500 2,150 Climbing Jacksonville Center
10:09PM 28.9103 -81.3106 338° Northwest 390 449 21,400 1,750 Climbing Jacksonville Center
10:10PM 29.0194 -81.3586 339° North 407 468 23,000 1,550 Climbing Jacksonville Center
10:11PM 29.1325 -81.3950 344° North 417 480 24,500 1,500 Climbing Jacksonville Center
10:12PM 29.2558 -81.4072 355° North 442 509 26,000 1,500 Climbing Jacksonville Center
10:13PM 29.3792 -81.4222 354° North 443 510 27,500 1,400 Climbing Jacksonville Center
10:14PM 29.4878 -81.4300 356° North 438 504 28,800 1,400 Climbing Jacksonville Center
10:15PM 29.6131 -81.4425 355° North 444 511 30,300 1,650 Climbing Jacksonville Center
10:16PM 29.7322 -81.4528 356° North 439 505 32,100 1,850 Climbing Jacksonville Center
10:17PM 29.8472 -81.4631 356° North 428 493 34,000 1,950 Climbing Jacksonville Center
10:18PM 29.9581 -81.4758 354° North 412 474 36,000 1,450 Climbing Jacksonville Center
10:19PM 30.0625 -81.4839 356° North 388 447 36,900 500 Climbing Jacksonville Center
10:20PM 30.1872 -81.4436 16° North 393 452 37,000 50 Climbing Jacksonville Center
10:21PM 30.3017 -81.3986 19° North 400 460 37,000  Level Jacksonville Center
10:22PM 30.4117 -81.3511 20° North 421 484 37,000  Level Jacksonville Center
10:23PM 30.5258 -81.3033 20° North 426 490 37,000  Level Jacksonville Center
10:24PM 30.6403 -81.2531 21° North 426 490 37,000  Level Jacksonville Center
10:25PM 30.7503 -81.2078 19° North 426 490 37,000  Level Jacksonville Center
10:26PM 30.8644 -81.1597 20° North 426 490 37,000  Level Jacksonville Center
10:27PM 30.9764 -81.1117 20° North 426 490 37,000  Level Jacksonville Center
10:28PM 31.0886 -81.0633 20° North 426 490 37,000 -50 Level Jacksonville Center
10:29PM 31.2028 -81.0150 20° North 431 496 36,900  Descending Jacksonville Center
10:30PM 31.3147 -80.9667 20° North 426 490 37,000 50 Climbing Jacksonville Center
10:31PM 31.4164 -80.9208 21° North 431 496 37,000  Level Jacksonville Center
10:32PM 31.5428 -80.8669 20° North 431 496 37,000 50 Level Jacksonville Center
10:33PM 31.6464 -80.8206 21° North 431 496 37,100 50 Climbing Jacksonville Center
10:34PM 31.7731 -80.7689 19° North 439 505 37,100 -50 Level Jacksonville Center
10:35PM 31.8869 -80.7175 21° North 439 505 37,000 -50 Descending Jacksonville Center
10:36PM 31.9906 -80.6708 21° North 434 499 37,000  Level Jacksonville Center
10:37PM 32.1147 -80.6164 20° North 434 499 37,000  Level Jacksonville Center
10:38PM 32.2308 -80.5644 21° North 434 499 37,000  Level Jacksonville Center
10:39PM 32.3467 -80.5097 22° Northeast 444 511 37,000  Level Jacksonville Center
10:40PM 32.4603 -80.4550 22° Northeast 444 511 37,000  Level Jacksonville Center
10:41PM 32.5783 -80.3978 22° Northeast 449 517 37,000  Level Jacksonville Center
10:42PM 32.6939 -80.3403 23° Northeast 449 517 37,000  Level Jacksonville Center
10:43PM 32.8097 -80.2850 22° Northeast 449 517 37,000 -50 Level Jacksonville Center
10:44PM 32.9256 -80.2272 23° Northeast 449 517 36,900  Descending Jacksonville Center
10:45PM 33.0350 -80.1744 22° Northeast 456 525 37,000 50 Climbing Jacksonville Center
10:46PM 33.1506 -80.1189 22° Northeast 456 525 37,000 -50 Level Jacksonville Center
10:47PM 33.2703 -80.0606 22° Northeast 449 517 36,900  Descending Jacksonville Center
10:48PM 33.3858 -80.0019 23° Northeast 449 517 37,000 50 Climbing Jacksonville Center
10:49PM 33.5014 -79.9458 22° Northeast 449 517 37,000  Level Jacksonville Center
10:50PM 33.6169 -79.8872 23° Northeast 449 517 37,000  Level Jacksonville Center
10:51PM 33.7325 -79.8308 22° Northeast 449 517 37,000 -50 Level Jacksonville Center
10:52PM 33.8458 -79.7719 23° Northeast 449 517 36,900 -50 Descending Jacksonville Center
10:53PM 33.9611 -79.7153 22° Northeast 449 517 36,900 50 Level Jacksonville Center
10:54PM 34.0744 -79.6558 23° Northeast 449 517 37,000 50 Climbing Jacksonville Center
10:55PM 34.1919 -79.5989 22° Northeast 449 517 37,000  Level Jacksonville Center
10:57PM 34.4108 -79.4861 23° Northeast 451 519 37,000  Level Washington Center
10:58PM 34.5233 -79.4261 24° Northeast 446 513 37,000  Level Washington Center
10:59PM 34.6422 -79.3658 23° Northeast 446 513 37,000  Level Washington Center
11:00PM 34.7589 -79.3081 22° Northeast 446 513 37,000  Level Washington Center
11:01PM 34.8775 -79.2478 23° Northeast 446 513 37,000  Level Washington Center
11:02PM 34.9942 -79.1872 23° Northeast 446 513 37,000  Level Washington Center
11:03PM 35.1086 -79.1286 23° Northeast 446 513 37,000  Level Washington Center
11:04PM 35.2250 -79.0678 23° Northeast 446 513 37,000  Level Washington Center
11:05PM 35.3417 -79.0042 24° Northeast 446 513 37,000  Level Washington Center
11:06PM 35.4483 -78.9167 34° Northeast 446 513 37,000  Level Washington Center
11:07PM 35.5572 -78.8269 34° Northeast 458 527 37,000  Level Washington Center
11:08PM 35.6683 -78.7342 34° Northeast 469 540 37,000  Level Washington Center
11:09PM 35.7792 -78.6414 34° Northeast 475 547 37,000  Level Washington Center
11:10PM 35.8858 -78.5456 36° Northeast 480 552 37,000  Level Washington Center
11:11PM 35.9839 -78.4619 35° Northeast 480 552 37,000  Level Washington Center
11:12PM 36.0967 -78.3683 34° Northeast 480 552 37,000  Level Washington Center
11:13PM 36.2053 -78.2717 36° Northeast 480 552 37,000  Level Washington Center
11:14PM 36.3161 -78.1750 35° Northeast 480 552 37,000  Level Washington Center
11:15PM 36.4350 -78.0731 35° Northeast 480 552 37,000  Level Washington Center
11:16PM 36.5392 -77.9756 37° Northeast 475 547 37,000  Level Washington Center
11:17PM 36.6475 -77.8831 34° Northeast 475 547 37,000  Level Washington Center
11:18PM 36.7556 -77.7878 35° Northeast 475 547 37,000 -248 Level Washington Center
11:19PM 36.8636 -77.6922 35° Northeast 475 547 36,500 -500 Descending Washington Center
11:20PM 36.9717 -77.5964 35° Northeast 482 555 36,000 -496 Descending Washington Center
11:21PM 37.0819 -77.5003 35° Northeast 482 555 35,500 -508 Descending Washington Center
11:22PM 37.1939 -77.3986 36° Northeast 482 555 35,000 -504 Descending Washington Center
11:23PM 37.3058 -77.2994 35° Northeast 482 555 34,500 -500 Descending Washington Center
11:24PM 37.4178 -77.2025 35° Northeast 482 555 34,000 -496 Descending Washington Center
11:25PM 37.5297 -77.1003 36° Northeast 493 567 33,500 -550 Descending Washington Center
11:26PM 37.6436 -76.9950 36° Northeast 493 567 32,900 -650 Descending Washington Center
11:27PM 37.7611 -76.9236 26° Northeast 485 558 32,200 -700 Descending Washington Center
11:28PM 37.8786 -76.8808 16° North 451 519 31,500 -712 Descending Washington Center
11:29PM 37.9936 -76.8511 12° North 418 481 30,800 -689 Descending Washington Center
11:30PM 38.0700 -76.9186 325° Northwest 348 400 30,100 -694 Descending Washington Center
11:31PM 38.1294 -77.0067 311° West 316 364 29,400 -763 Descending Washington Center
11:32PM 38.2078 -77.0717 327° Northwest 321 369 28,600 -857 Descending Washington Center
11:33PM 38.3100 -77.0789 357° North 337 388 27,700 -950 Descending Washington Center
11:34PM 38.4256 -76.9989 28° Northeast 392 451 26,700 -992 Descending Washington Center
11:35PM 38.5353 -76.8950 37° Northeast 424 488 25,700 -1,180 Descending Washington Center
11:36PM 38.6467 -76.7986 34° Northeast 453 521 24,300 -1,109 Descending Washington Center
11:37PM 38.7272 -76.6586 54° Northeast 475 547 23,500 -1,525 Descending Washington Center
11:38PM 38.7619 -76.4808 76° East 481 554 21,300 -2,281 Descending Washington Center
11:39PM 38.7967 -76.3028 76° East 498 573 18,900 -2,311 Descending Washington Center
11:40PM 38.8350 -76.1353 74° East 498 573 16,600 -1,934 Descending Washington Center
11:41PM 38.8669 -75.9675 76° East 488 562 15,000 -850 Descending Washington Center
11:42PM 38.9131 -75.8183 68° East 468 539 14,900 -661 Descending Washington Center
11:43PM 39.0092 -75.7278 36° Northeast 422 486 13,700 -1,017 Descending Washington Center
11:44PM 39.1072 -75.6719 24° Northeast 395 455 12,900 -650 Descending Washington Center
11:46PM 39.2667 -75.6500 North 322 371 12,000 -309 Descending Philadelphia TRACON
11:47PM 39.3667 -75.5833 27° Northeast 329 379 12,000  Level Philadelphia TRACON
11:48PM 39.4500 -75.5167 32° Northeast 329 379 12,000  Level Philadelphia TRACON
11:49PM 39.5167 -75.4667 30° Northeast 323 372 12,000  Level Philadelphia TRACON
11:50PM 39.6000 -75.4167 25° Northeast 324 373 12,000 -158 Level Philadelphia TRACON
11:51PM 39.6667 -75.3500 38° Northeast 320 368 11,700 -750 Descending Philadelphia TRACON
11:52PM 39.7500 -75.2833 32° Northeast 318 366 10,500 -1,263 Descending Philadelphia TRACON
11:53PM 39.8000 -75.2333 38° Northeast 310 357 9,300 -1,474 Descending Philadelphia TRACON
11:54PM 39.8833 -75.1833 25° Northeast 283 326 7,700 -1,526 Descending Philadelphia TRACON
11:55PM 39.9333 -75.1333 37° Northeast 276 318 6,400 -1,158 Descending Philadelphia TRACON
11:56PM 40.0000 -75.0833 30° Northeast 255 293 5,500 -900 Descending Philadelphia TRACON
11:57PM 40.0500 -75.0333 37° Northeast 221 254 4,600 -1,100 Descending Philadelphia TRACON
11:58PM 40.1000 -75.0000 27° Northeast 211 243 3,300 -1,053 Descending Philadelphia TRACON
11:59PM 40.1500 -74.9667 27° Northeast 200 230 2,600 -700 Descending Philadelphia TRACON
12:00AM 40.1833 -74.9333 37° Northeast 186 214 1,900 -429 Descending Philadelphia TRACON
12:01AM 40.2167 -74.8833 49° Northeast 138 159 1,700 -500 Descending Philadelphia TRACON
12:02AM 40.2500 -74.8500 37° Northeast 123 142 900 -800 Descending Philadelphia TRACON